Location: Baix
(44.7118°N, 4.7648°E)
Time: 18:00:31
(UTC+00:00)

Cosmos 1758 Rocket - Pass Details

Date: 07 August 2020
Orbit: 603 x 635 km, 82.5° (Epoch: 23 September)

Event Time Altitude Azimuth Distance (km) Brightness Sun altitude
Rises 03:26:34 0° 352° (N) 2,867 7.4 -11.2°
Reaches altitude 10° 03:28:47 10° 354° (N) 1,958 6.5 -10.9°
Maximum altitude 03:33:07 79° 81° (E) 621 3.7 -10.3°
Drops below altitude 10° 03:37:26 10° 168° (SSE) 1,948 5.9 -9.6°
Sets 03:39:38 0° 170° (S) 2,849 6.7 -9.3°
